Location: Andershausen
(51.8462°N, 9.8595°E)
Time: 03:14:06
(UTC+00:00)

Cosmos 1763 Rocket - Pass Details

Date: 18 November 2025
Orbit: 728 x 774 km, 74.0° (Epoch: 15 December)

Event Time Altitude Azimuth Distance (km) Brightness Sun altitude
Rises 16:45:04 0° 333° (NNW) 3,244 6.9 -12.0°
Reaches altitude 10° 16:47:28 10° 331° (NNW) 2,307 6.1 -12.4°
Maximum altitude 16:52:40 71° 249° (WSW) 803 3.8 -13.2°
Drops below altitude 10° 16:57:46 10° 166° (SSE) 2,261 5.9 -13.9°
Sets 17:00:06 0° 164° (SSE) 3,173 6.7 -14.3°
